Location: Curupao
(10.4996°N, 66.6442°W)
Time: 00:40:24
(UTC+00:00)

H-2A R/B - Pass Details

Date: 23 May 2024
Orbit: 407 x 431 km, 97.4° (Epoch: 12 June)

Event Time Altitude Azimuth Distance (km) Brightness Sun altitude
Rises 09:22:16 0° 358° (N) 2,323 6.3 -10.3°
Reaches altitude 10° 09:24:21 10° 348° (NNW) 1,466 5.1 -9.8°
Maximum altitude 09:27:12 33° 282° (WNW) 714 3.0 -9.1°
Drops below altitude 10° 09:30:04 10° 216° (SW) 1,477 4.5 -8.5°
Enters shadow 09:30:40 - 212° (SSW) 1,714 4.8 -8.4°
